Home   Weather   St. Pölten   Past weeks

Flag for Austria Past Weather in St. Pölten, Lower Austria, Austria — Yesterday and Last 2 Weeks

Now
30 °F

Passing clouds.


Feels Like: 24 °F
Forecast: 19 / 34 °F
Wind: 6 mph from Northeast

Location: Tulln Airport

Current Time: Dec 4, 2016 at 5:38:16 pm

Latest Report: Dec 4, 2016 at 4:50 pm


Visibility: 9 mi

Pressure: 30.42 "Hg

Humidity: 86%

Dew Point: 27 °F

Location of St. PöltenLocation

Past Weather in St. Pölten — Graph

°F

St. Pölten Temperature Yesterday

Maximum temperature yesterday: 39 °F (at 12:50 pm)
Minimum temperature yesterday: 25 °F (at 9:50 pm)
Average temperature yesterday: 31 °F

High & Low Weather Summary for the Past Weeks

 TemperatureHumidityPressure
High63 °F (Nov 21, 2:50 pm)100% (Nov 21, 4:50 am)30.54 "Hg (Nov 21, 4:50 am)
Low18 °F (Dec 4, 6:50 am)52% (Nov 29, 1:50 pm)29.80 "Hg (Nov 19, 3:50 pm)
Average41 °F80%30.13 "Hg
* Reported Nov 19 3:50 pm — Dec 4 3:50 pm, St. Pölten, Weather by CustomWeather, © 2016

Note: Actual official high and low records may vary slightly from our data, if they occured in-between our weather recording intervals... More about our weather records

Advertising

St. Pölten Weather History for the Previous 24 Hours

Scroll right to see more
 ConditionsComfort  
Time TempWeatherWind HumidityBarometerVisibility
3:50 pm
Sun, Dec 4
32 °FScattered clouds.9 mph80%30.42 "Hg12 mi
2:50 pm34 °FScattered clouds.9 mph81%30.42 "Hg12 mi
1:50 pm34 °FPartly sunny.9 mph81%30.42 "Hg12 mi
12:50 pm32 °FPartly sunny.10 mph87%30.42 "Hg12 mi
11:50 am32 °FPartly sunny.9 mph87%30.42 "Hg7 mi
10:50 am30 °FPartly sunny.5 mph93%30.42 "Hg4 mi
9:50 am27 °FPartly sunny.1 mph93%30.45 "Hg4 mi
8:50 am21 °FLight freezing rain. Partly sunny.No wind93%30.42 "Hg1 mi
7:50 am19 °FIce fog.No wind93%30.39 "Hg1 mi
6:50 am18 °FIce fog.No wind100%30.39 "Hg1 mi
5:50 am19 °FIce fog.No wind93%30.36 "Hg1 mi
4:50 am19 °FIce fog.No wind93%30.36 "Hg1 mi
9:50 pm
Sat, Dec 3
25 °FPassing clouds.1 mph86%30.36 "Hg12 mi
8:50 pm27 °FPassing clouds.2 mph86%30.33 "Hg12 mi
7:50 pm28 °FPassing clouds.No wind80%30.33 "Hg16 mi
6:50 pm28 °FPassing clouds.No wind86%30.33 "Hg16 mi
5:50 pm30 °FPassing clouds.2 mph80%30.30 "Hg22 mi
Weather by CustomWeather, © 2016

See weather overviewHow to use our weather pages